Location: Beau Repaire
(50.6144°N, 4.0551°E)
Time: 21:39:14
(UTC+00:00)

Cosmos 1271 Rocket - Pass Details

Date: 15 May 2026
Orbit: 421 x 447 km, 81.2° (Epoch: 10 June)

Event Time Altitude Azimuth Distance (km) Brightness Sun altitude
Exits shadow 22:07:00 28° 96° (E) 862 3.5 -17.4°
Maximum altitude 22:07:03 28° 94° (E) 861 3.6 -17.4°
Drops below altitude 10° 22:10:00 10° 33° (NNE) 1,555 5.6 -17.6°
Sets 22:12:13 0° 22° (NNE) 2,424 6.8 -17.7°
